Time,TemperatureF,DewpointF,PressureIn,WindDirection,WindDirectionDegrees,WindSpeedMPH,WindSpeedGustMPH,Humidity,HourlyPrecipIn,Conditions,Clouds,dailyrainin,SoftwareType,DateUTC
2013-10-24 00:00:00,43.4,35.0,29.92,West,267,3.0,12.0,72,0.00,,---,0.00,VWS V14.00,2013-10-24 04:00:00,
2013-10-24 00:03:00,43.4,35.0,29.92,West,264,3.0,12.0,72,0.00,,---,0.00,VWS V14.00,2013-10-24 04:03:00,
2013-10-24 00:08:00,43.3,34.9,29.92,West,261,1.0,9.0,72,0.00,,---,0.00,VWS V14.00,2013-10-24 04:08:00,
2013-10-24 00:13:00,43.2,34.8,29.92,West,265,3.0,9.0,72,0.00,,---,0.00,VWS V14.00,2013-10-24 04:13:00,
2013-10-24 00:18:00,43.1,34.7,29.92,West,263,4.0,9.0,72,0.00,,---,0.00,VWS V14.00,2013-10-24 04:18:00,
2013-10-24 00:23:00,43.0,34.6,29.92,West,263,1.0,9.0,72,0.00,,---,0.00,VWS V14.00,2013-10-24 04:23:00,
2013-10-24 00:28:00,42.9,34.5,29.92,West,264,4.0,9.0,72,0.00,,---,0.00,VWS V14.00,2013-10-24 04:28:00,
2013-10-24 00:30:00,42.7,34.3,29.92,West,267,5.0,9.0,72,0.00,,---,0.00,VWS V14.00,2013-10-24 04:30:00,
2013-10-24 00:33:00,42.8,34.4,29.92,West,267,4.0,9.0,72,0.00,,---,0.00,VWS V14.00,2013-10-24 04:33:00,
2013-10-24 00:38:00,42.7,34.3,29.92,West,263,5.0,9.0,72,0.00,,---,0.00,VWS V14.00,2013-10-24 04:38:00,
2013-10-24 00:43:00,42.7,34.0,29.92,West,259,4.0,10.0,71,0.00,,---,0.00,VWS V14.00,2013-10-24 04:43:00,
2013-10-24 00:48:00,42.7,34.0,29.92,West,259,0.0,10.0,71,0.00,,---,0.00,VWS V14.00,2013-10-24 04:48:00,
2013-10-24 00:53:00,42.6,33.9,29.92,WSW,257,0.0,10.0,71,0.00,,---,0.00,VWS V14.00,2013-10-24 04:53:00,
2013-10-24 00:58:00,42.4,33.7,29.93,WSW,257,0.0,10.0,71,0.00,,---,0.00,VWS V14.00,2013-10-24 04:58:00,
2013-10-24 01:00:00,42.2,33.5,29.93,West,260,1.0,10.0,71,0.00,,---,0.00,VWS V14.00,2013-10-24 05:00:00,
2013-10-24 01:03:00,42.2,33.5,29.93,WSW,257,5.0,10.0,71,0.00,,---,0.00,VWS V14.00,2013-10-24 05:03:00,
2013-10-24 01:08:00,42.1,33.4,29.93,West,260,1.0,1.0,71,0.00,,---,0.00,VWS V14.00,2013-10-24 05:08:00,
2013-10-24 01:13:00,42.0,33.3,29.93,West,259,0.0,5.0,71,0.00,,---,0.00,VWS V14.00,2013-10-24 05:13:00,
2013-10-24 01:18:00,41.9,33.5,29.93,West,259,0.0,5.0,72,0.00,,---,0.00,VWS V14.00,2013-10-24 05:18:00,
2013-10-24 01:23:00,41.8,33.5,29.93,West,259,0.0,5.0,72,0.00,,---,0.00,VWS V14.00,2013-10-24 05:23:00,
2013-10-24 01:28:00,41.7,33.3,29.93,West,259,0.0,5.0,72,0.00,,---,0.00,VWS V14.00,2013-10-24 05:28:00,
2013-10-24 01:30:00,41.5,33.5,29.94,West,259,0.0,5.0,73,0.00,,---,0.00,VWS V14.00,2013-10-24 05:30:00,
2013-10-24 01:33:00,41.5,33.5,29.94,West,259,0.0,5.0,73,0.00,,---,0.00,VWS V14.00,2013-10-24 05:33:00,
2013-10-24 01:39:00,41.5,33.5,29.93,West,259,0.0,0.0,73,0.00,,---,0.00,VWS V14.00,2013-10-24 05:39:00,
2013-10-24 01:44:00,41.4,33.8,29.94,West,259,0.0,0.0,74,0.00,,---,0.00,VWS V14.00,2013-10-24 05:44:00,
2013-10-24 01:49:00,41.3,33.7,29.94,West,259,0.0,3.0,74,0.00,,---,0.00,VWS V14.00,2013-10-24 05:49:00,
2013-10-24 01:54:00,41.1,33.5,29.94,WSW,258,0.0,3.0,74,0.00,,---,0.00,VWS V14.00,2013-10-24 05:54:00,
2013-10-24 01:59:00,41.0,33.7,29.94,WSW,258,0.0,4.0,75,0.00,,---,0.00,VWS V14.00,2013-10-24 05:59:00,
2013-10-24 02:00:00,40.9,33.6,29.95,WSW,258,0.0,4.0,75,0.00,,---,0.00,VWS V14.00,2013-10-24 06:00:00,
2013-10-24 02:04:00,40.9,33.6,29.94,WSW,258,0.0,4.0,75,0.00,,---,0.00,VWS V14.00,2013-10-24 06:04:00,
2013-10-24 02:09:00,40.9,33.6,29.95,WSW,258,0.0,3.0,75,0.00,,---,0.00,VWS V14.00,2013-10-24 06:09:00,
2013-10-24 02:14:00,40.8,33.5,29.94,WSW,258,0.0,4.0,75,0.00,,---,0.00,VWS V14.00,2013-10-24 06:14:00,
2013-10-24 02:19:00,40.6,33.3,29.94,WSW,258,0.0,4.0,75,0.00,,---,0.00,VWS V14.00,2013-10-24 06:19:00,
2013-10-24 02:24:00,40.6,33.3,29.94,WSW,257,0.0,4.0,75,0.00,,---,0.00,VWS V14.00,2013-10-24 06:24:00,
2013-10-24 02:29:00,40.5,33.5,29.94,WSW,258,0.0,4.0,76,0.00,,---,0.00,VWS V14.00,2013-10-24 06:29:00,
2013-10-24 02:30:00,40.3,33.3,29.95,WSW,258,0.0,4.0,76,0.00,,---,0.00,VWS V14.00,2013-10-24 06:30:00,
2013-10-24 02:34:00,40.4,33.5,29.95,WSW,258,0.0,4.0,76,0.00,,---,0.00,VWS V14.00,2013-10-24 06:34:00,
2013-10-24 02:39:00,40.3,33.3,29.95,WSW,258,0.0,2.0,76,0.00,,---,0.00,VWS V14.00,2013-10-24 06:39:00,
2013-10-24 02:44:00,40.2,33.2,29.95,WSW,258,1.0,4.0,76,0.00,,---,0.00,VWS V14.00,2013-10-24 06:44:00,
2013-10-24 02:49:00,40.2,33.2,29.95,WSW,257,0.0,4.0,76,0.00,,---,0.00,VWS V14.00,2013-10-24 06:49:00,
2013-10-24 02:54:00,40.2,33.2,29.95,WSW,257,0.0,4.0,76,0.00,,---,0.00,VWS V14.00,2013-10-24 06:54:00,
2013-10-24 02:59:00,40.1,33.2,29.95,WSW,257,0.0,4.0,76,0.00,,---,0.00,VWS V14.00,2013-10-24 06:59:00,
2013-10-24 03:00:00,40.0,33.1,29.95,WSW,257,0.0,4.0,76,0.00,,---,0.00,VWS V14.00,2013-10-24 07:00:00,
2013-10-24 03:04:00,40.0,33.1,29.95,WSW,257,0.0,4.0,76,0.00,,---,0.00,VWS V14.00,2013-10-24 07:04:00,
2013-10-24 03:09:00,39.9,33.0,29.95,WSW,257,0.0,3.0,76,0.00,,---,0.00,VWS V14.00,2013-10-24 07:09:00,
2013-10-24 03:14:00,39.8,33.2,29.95,WSW,257,0.0,3.0,77,0.00,,---,0.00,VWS V14.00,2013-10-24 07:14:00,
2013-10-24 03:19:00,39.7,33.1,29.95,WSW,257,1.0,3.0,77,0.00,,---,0.00,VWS V14.00,2013-10-24 07:19:00,
2013-10-24 03:24:00,39.6,33.0,29.96,WSW,257,0.0,3.0,77,0.00,,---,0.00,VWS V14.00,2013-10-24 07:24:00,
2013-10-24 03:29:00,39.6,33.3,29.96,WSW,257,0.0,3.0,78,0.00,,---,0.00,VWS V14.00,2013-10-24 07:29:00,
2013-10-24 03:30:00,39.8,33.5,29.96,WSW,257,1.0,4.0,78,0.00,,---,0.00,VWS V14.00,2013-10-24 07:30:00,
2013-10-24 03:34:00,39.7,33.4,29.96,WSW,257,3.0,4.0,78,0.00,,---,0.00,VWS V14.00,2013-10-24 07:34:00,
2013-10-24 03:39:00,40.0,33.7,29.96,WSW,257,0.0,2.0,78,0.00,,---,0.00,VWS V14.00,2013-10-24 07:39:00,
2013-10-24 03:44:00,40.1,34.1,29.96,WSW,257,0.0,2.0,79,0.00,,---,0.00,VWS V14.00,2013-10-24 07:44:00,
2013-10-24 03:49:00,40.3,34.3,29.96,WSW,257,0.0,4.0,79,0.00,,---,0.00,VWS V14.00,2013-10-24 07:49:00,
2013-10-24 03:54:00,40.4,34.4,29.95,WSW,257,0.0,4.0,79,0.00,,---,0.00,VWS V14.00,2013-10-24 07:54:00,
2013-10-24 03:59:00,40.5,34.2,29.96,WSW,257,0.0,4.0,78,0.00,,---,0.00,VWS V14.00,2013-10-24 07:59:00,
2013-10-24 04:00:00,40.7,34.4,29.96,WSW,257,0.0,4.0,78,0.00,,---,0.00,VWS V14.00,2013-10-24 08:00:00,
2013-10-24 04:04:00,40.6,34.3,29.96,WSW,257,0.0,4.0,78,0.00,,---,0.00,VWS V14.00,2013-10-24 08:04:00,
2013-10-24 04:09:00,40.7,34.4,29.96,WSW,257,0.0,4.0,78,0.00,,---,0.00,VWS V14.00,2013-10-24 08:09:00,
2013-10-24 04:14:00,40.7,34.4,29.96,WSW,257,0.0,4.0,78,0.00,,---,0.00,VWS V14.00,2013-10-24 08:14:00,
2013-10-24 04:19:00,40.6,34.0,29.95,WSW,257,0.0,4.0,77,0.00,,---,0.00,VWS V14.00,2013-10-24 08:19:00,
2013-10-24 04:24:00,40.6,34.0,29.95,WSW,257,0.0,4.0,77,0.00,,---,0.00,VWS V14.00,2013-10-24 08:24:00,
2013-10-24 04:29:00,40.4,34.1,29.96,WSW,257,0.0,4.0,78,0.00,,---,0.00,VWS V14.00,2013-10-24 08:29:00,
2013-10-24 04:30:00,40.3,34.0,29.96,WSW,257,0.0,4.0,78,0.00,,---,0.00,VWS V14.00,2013-10-24 08:30:00,
2013-10-24 04:34:00,40.4,34.1,29.96,WSW,257,0.0,4.0,78,0.00,,---,0.00,VWS V14.00,2013-10-24 08:34:00,
2013-10-24 04:39:00,40.2,33.9,29.96,WSW,257,0.0,0.0,78,0.00,,---,0.00,VWS V14.00,2013-10-24 08:39:00,
2013-10-24 04:44:00,40.1,33.8,29.96,WSW,257,0.0,0.0,78,0.00,,---,0.00,VWS V14.00,2013-10-24 08:44:00,
2013-10-24 04:49:00,40.1,34.1,29.97,WSW,257,0.0,0.0,79,0.00,,---,0.00,VWS V14.00,2013-10-24 08:49:00,
2013-10-24 04:54:00,40.0,34.0,29.96,WSW,257,0.0,2.0,79,0.00,,---,0.00,VWS V14.00,2013-10-24 08:54:00,
2013-10-24 04:59:00,40.1,34.4,29.97,WSW,257,0.0,5.0,80,0.00,,---,0.00,VWS V14.00,2013-10-24 08:59:00,
2013-10-24 05:00:00,40.2,34.2,29.97,WSW,254,0.0,5.0,79,0.00,,---,0.00,VWS V14.00,2013-10-24 09:00:00,
2013-10-24 05:04:00,76.8,73.0,30.27,South,180,3.5,3.5,88,0.00,CLR,,0.00,WeatherDisplay:10.37,2013-10-24 09:04:00,
2013-10-24 05:09:00,40.2,34.2,29.97,WSW,255,0.0,0.0,79,0.00,,---,0.00,VWS V14.00,2013-10-24 09:09:00,
2013-10-24 05:14:00,40.2,34.2,29.97,WSW,255,0.0,0.0,79,0.00,,---,0.00,VWS V14.00,2013-10-24 09:14:00,
2013-10-24 05:19:00,40.1,34.1,29.97,WSW,254,0.0,4.0,79,0.00,,---,0.00,VWS V14.00,2013-10-24 09:19:00,
2013-10-24 05:24:00,40.1,33.8,29.97,WSW,254,2.0,4.0,78,0.00,,---,0.00,VWS V14.00,2013-10-24 09:24:00,
2013-10-24 05:29:00,40.1,33.8,29.98,SW,219,3.0,4.0,78,0.00,,---,0.00,VWS V14.00,2013-10-24 09:29:00,
2013-10-24 05:30:00,40.4,34.1,29.98,SSW,211,0.0,6.0,78,0.00,,---,0.00,VWS V14.00,2013-10-24 09:30:00,
2013-10-24 05:34:00,40.3,34.0,29.98,SSW,208,2.0,6.0,78,0.00,,---,0.00,VWS V14.00,2013-10-24 09:34:00,
2013-10-24 05:39:00,40.5,33.9,29.98,SSW,207,4.0,6.0,77,0.00,,---,0.00,VWS V14.00,2013-10-24 09:39:00,
2013-10-24 05:44:00,40.7,33.7,29.98,SSW,209,0.0,6.0,76,0.00,,---,0.00,VWS V14.00,2013-10-24 09:44:00,
2013-10-24 05:49:00,40.9,33.9,29.98,SSW,204,5.0,6.0,76,0.00,,---,0.00,VWS V14.00,2013-10-24 09:49:00,
2013-10-24 05:54:00,41.1,34.1,29.98,SSW,204,0.0,6.0,76,0.00,,---,0.00,VWS V14.00,2013-10-24 09:54:00,
2013-10-24 05:59:00,41.1,33.8,29.98,SW,218,0.0,6.0,75,0.00,,---,0.00,VWS V14.00,2013-10-24 09:59:00,
2013-10-24 06:00:00,41.2,33.6,29.99,SW,223,1.0,9.0,74,0.00,,---,0.00,VWS V14.00,2013-10-24 10:00:00,
2013-10-24 06:04:00,41.2,33.5,29.99,SW,224,2.0,9.0,74,0.00,,---,0.00,VWS V14.00,2013-10-24 10:04:00,
2013-10-24 06:09:00,41.2,33.2,29.99,SW,223,0.0,3.0,73,0.00,,---,0.00,VWS V14.00,2013-10-24 10:09:00,
2013-10-24 06:14:00,41.1,33.1,29.99,SW,223,0.0,3.0,73,0.00,,---,0.00,VWS V14.00,2013-10-24 10:14:00,
2013-10-24 06:19:00,41.0,33.0,29.99,SW,224,0.0,3.0,73,0.00,,---,0.00,VWS V14.00,2013-10-24 10:19:00,
2013-10-24 06:24:00,40.8,32.8,29.99,SW,224,0.0,3.0,73,0.00,,---,0.00,VWS V14.00,2013-10-24 10:24:00,
2013-10-24 06:29:00,40.7,32.7,29.99,SW,224,0.0,3.0,73,0.00,,---,0.00,VWS V14.00,2013-10-24 10:29:00,
2013-10-24 06:30:00,40.5,32.5,29.99,SW,224,0.0,3.0,73,0.00,,---,0.00,VWS V14.00,2013-10-24 10:30:00,
2013-10-24 06:34:00,40.5,32.5,29.99,SW,224,0.0,3.0,73,0.00,,---,0.00,VWS V14.00,2013-10-24 10:34:00,
2013-10-24 06:39:00,40.4,32.4,30.00,SW,224,0.0,0.0,73,0.00,,---,0.00,VWS V14.00,2013-10-24 10:39:00,
2013-10-24 06:44:00,40.2,32.6,30.00,SW,223,0.0,0.0,74,0.00,,---,0.00,VWS V14.00,2013-10-24 10:44:00,
2013-10-24 06:49:00,40.1,32.5,30.00,SW,224,0.0,0.0,74,0.00,,---,0.00,VWS V14.00,2013-10-24 10:49:00,
2013-10-24 06:54:00,39.9,32.3,30.00,SW,224,0.0,0.0,74,0.00,,---,0.00,VWS V14.00,2013-10-24 10:54:00,
2013-10-24 06:59:00,39.7,32.1,30.00,SW,223,0.0,0.0,74,0.00,,---,0.00,VWS V14.00,2013-10-24 10:59:00,
2013-10-24 07:00:00,39.3,32.0,30.00,SW,224,0.0,0.0,75,0.00,,---,0.00,VWS V14.00,2013-10-24 11:00:00,
2013-10-24 07:04:00,39.4,31.8,30.00,SW,224,0.0,0.0,74,0.00,,---,0.00,VWS V14.00,2013-10-24 11:04:00,
2013-10-24 07:09:00,39.1,31.9,30.00,SW,224,0.0,0.0,75,0.00,,---,0.00,VWS V14.00,2013-10-24 11:09:00,
2013-10-24 07:14:00,38.8,31.9,30.01,SW,223,0.0,0.0,76,0.00,,---,0.00,VWS V14.00,2013-10-24 11:14:00,
2013-10-24 07:19:00,38.6,31.7,30.01,SW,223,0.0,1.0,76,0.00,,---,0.00,VWS V14.00,2013-10-24 11:19:00,
2013-10-24 07:24:00,38.3,31.7,30.01,SW,224,0.0,1.0,77,0.00,,---,0.00,VWS V14.00,2013-10-24 11:24:00,
2013-10-24 07:29:00,38.2,31.6,30.01,SW,223,0.0,1.0,77,0.00,,---,0.00,VWS V14.00,2013-10-24 11:29:00,
2013-10-24 07:30:00,38.0,31.4,30.01,SW,224,0.0,1.0,77,0.00,,---,0.00,VWS V14.00,2013-10-24 11:30:00,
2013-10-24 07:34:00,38.1,31.5,30.01,SW,224,0.0,1.0,77,0.00,,---,0.00,VWS V14.00,2013-10-24 11:34:00,
2013-10-24 07:39:00,37.9,31.4,30.01,SW,224,0.0,0.0,77,0.00,,---,0.00,VWS V14.00,2013-10-24 11:39:00,
2013-10-24 07:44:00,37.7,31.5,30.02,SW,224,0.0,0.0,78,0.00,,---,0.00,VWS V14.00,2013-10-24 11:44:00,
2013-10-24 07:49:00,37.5,31.3,30.02,SW,224,0.0,0.0,78,0.00,,---,0.00,VWS V14.00,2013-10-24 11:49:00,
2013-10-24 07:54:00,37.4,31.5,30.02,SW,224,0.0,0.0,79,0.00,,---,0.00,VWS V14.00,2013-10-24 11:54:00,
2013-10-24 07:59:00,37.5,31.9,30.02,SW,223,0.0,0.0,80,0.00,,---,0.00,VWS V14.00,2013-10-24 11:59:00,
2013-10-24 08:00:00,37.8,31.9,30.02,SW,224,0.0,0.0,79,0.00,,---,0.00,VWS V14.00,2013-10-24 12:00:00,
2013-10-24 08:04:00,37.8,31.9,30.02,SW,223,0.0,0.0,79,0.00,,---,0.00,VWS V14.00,2013-10-24 12:04:00,
2013-10-24 08:09:00,37.5,31.9,30.02,SW,224,0.0,0.0,80,0.00,,---,0.00,VWS V14.00,2013-10-24 12:09:00,
2013-10-24 08:14:00,37.7,32.7,30.02,SW,224,0.0,0.0,82,0.00,,---,0.00,VWS V14.00,2013-10-24 12:14:00,
2013-10-24 08:19:00,38.0,33.3,30.03,SW,223,0.0,0.0,83,0.00,,---,0.00,VWS V14.00,2013-10-24 12:19:00,
2013-10-24 08:24:00,38.6,33.9,30.03,SW,224,0.0,0.0,83,0.00,,---,0.00,VWS V14.00,2013-10-24 12:24:00,
2013-10-24 08:29:00,39.6,34.9,30.03,SW,223,0.0,0.0,83,0.00,,---,0.00,VWS V14.00,2013-10-24 12:29:00,
2013-10-24 08:30:00,40.9,35.8,30.03,SW,224,1.0,3.0,82,0.00,,---,0.00,VWS V14.00,2013-10-24 12:30:00,
2013-10-24 08:34:00,40.6,35.8,30.03,SW,223,0.0,2.0,83,0.00,,---,0.00,VWS V14.00,2013-10-24 12:34:00,
2013-10-24 08:39:00,41.3,35.6,30.03,SW,224,2.0,3.0,80,0.00,,---,0.00,VWS V14.00,2013-10-24 12:39:00,
2013-10-24 08:44:00,41.7,35.0,30.03,SW,224,0.0,3.0,77,0.00,,---,0.00,VWS V14.00,2013-10-24 12:44:00,
2013-10-24 08:49:00,42.4,34.7,30.03,SW,223,0.0,3.0,74,0.00,,---,0.00,VWS V14.00,2013-10-24 12:49:00,
2013-10-24 08:54:00,43.3,34.9,30.03,SW,224,0.0,3.0,72,0.00,,---,0.00,VWS V14.00,2013-10-24 12:54:00,
2013-10-24 08:59:00,43.9,34.8,30.03,SSW,206,6.0,6.0,70,0.00,,---,0.00,VWS V14.00,2013-10-24 12:59:00,
2013-10-24 09:00:00,44.7,34.8,30.03,SW,231,2.0,6.0,68,0.00,,---,0.00,VWS V14.00,2013-10-24 13:00:00,
2013-10-24 09:04:00,44.6,34.7,30.03,SW,230,3.0,6.0,68,0.00,,---,0.00,VWS V14.00,2013-10-24 13:04:00,
2013-10-24 09:09:00,45.0,34.7,30.03,WSW,250,2.0,6.0,67,0.00,,---,0.00,VWS V14.00,2013-10-24 13:09:00,
2013-10-24 09:14:00,45.8,35.5,30.03,SW,226,5.0,6.0,67,0.00,,---,0.00,VWS V14.00,2013-10-24 13:14:00,
2013-10-24 09:19:00,46.5,35.4,30.03,WSW,244,3.0,9.0,65,0.00,,---,0.00,VWS V14.00,2013-10-24 13:19:00,
2013-10-24 09:24:00,47.2,35.3,30.03,SSW,213,11.0,12.0,63,0.00,,---,0.00,VWS V14.00,2013-10-24 13:24:00,
2013-10-24 09:29:00,47.2,34.0,30.03,SW,232,3.0,16.0,60,0.00,,---,0.00,VWS V14.00,2013-10-24 13:29:00,
2013-10-24 09:30:00,46.5,33.0,30.03,SW,227,6.0,16.0,59,0.00,,---,0.00,VWS V14.00,2013-10-24 13:30:00,
2013-10-24 09:34:00,46.7,33.2,30.03,WSW,237,2.0,16.0,59,0.00,,---,0.00,VWS V14.00,2013-10-24 13:34:00,
2013-10-24 09:39:00,46.2,33.5,30.03,WSW,244,3.0,10.0,61,0.00,,---,0.00,VWS V14.00,2013-10-24 13:39:00,
2013-10-24 09:44:00,45.9,33.6,30.04,SW,229,4.0,12.0,62,0.00,,---,0.00,VWS V14.00,2013-10-24 13:44:00,
2013-10-24 09:49:00,45.8,33.1,30.03,SSW,209,9.0,12.0,61,0.00,,---,0.00,VWS V14.00,2013-10-24 13:49:00,
2013-10-24 09:55:00,45.7,32.6,30.03,SW,229,5.0,12.0,60,0.00,,---,0.00,VWS V14.00,2013-10-24 13:55:00,
2013-10-24 10:00:00,46.0,33.3,30.03,WSW,239,10.0,12.0,61,0.00,,---,0.00,VWS V14.00,2013-10-24 14:00:00,
2013-10-24 10:05:00,46.6,33.9,30.03,West,259,9.0,14.0,61,0.00,,---,0.00,VWS V14.00,2013-10-24 14:05:00,
2013-10-24 10:10:00,46.9,33.8,30.04,SW,224,6.0,12.0,60,0.00,,---,0.00,VWS V14.00,2013-10-24 14:10:00,
2013-10-24 10:15:00,47.3,34.1,30.04,SSW,198,6.0,14.0,60,0.00,,---,0.00,VWS V14.00,2013-10-24 14:15:00,
2013-10-24 10:20:00,47.8,34.6,30.03,WSW,257,4.0,14.0,60,0.00,,---,0.00,VWS V14.00,2013-10-24 14:20:00,
2013-10-24 10:25:00,48.1,34.5,30.04,SW,223,8.0,19.0,59,0.00,,---,0.00,VWS V14.00,2013-10-24 14:25:00,
2013-10-24 10:30:00,47.7,32.8,30.04,SW,224,7.0,19.0,56,0.00,,---,0.00,VWS V14.00,2013-10-24 14:30:00,
2013-10-24 10:35:00,47.2,32.8,30.04,West,267,6.0,19.0,57,0.00,,---,0.00,VWS V14.00,2013-10-24 14:35:00,
2013-10-24 10:40:00,47.2,33.6,30.04,West,260,4.0,11.0,59,0.00,,---,0.00,VWS V14.00,2013-10-24 14:40:00,
2013-10-24 10:45:00,47.0,33.8,30.04,SSW,211,6.0,14.0,60,0.00,,---,0.00,VWS V14.00,2013-10-24 14:45:00,
2013-10-24 10:50:00,46.9,34.2,30.04,SW,223,4.0,14.0,61,0.00,,---,0.00,VWS V14.00,2013-10-24 14:50:00,
2013-10-24 10:55:00,47.1,34.4,30.04,SW,228,5.0,14.0,61,0.00,,---,0.00,VWS V14.00,2013-10-24 14:55:00,
2013-10-24 11:00:00,47.2,34.0,30.04,West,261,5.0,15.0,60,0.00,,---,0.00,VWS V14.00,2013-10-24 15:00:00,
2013-10-24 11:05:00,47.3,34.1,30.04,West,265,12.0,15.0,60,0.00,,---,0.00,VWS V14.00,2013-10-24 15:05:00,
2013-10-24 11:10:00,47.3,34.1,30.04,SW,226,5.0,12.0,60,0.00,,---,0.00,VWS V14.00,2013-10-24 15:10:00,
2013-10-24 11:15:00,48.1,35.7,30.04,SW,225,12.0,13.0,62,0.00,,---,0.00,VWS V14.00,2013-10-24 15:15:00,
2013-10-24 11:20:00,48.0,33.9,30.04,SW,228,6.0,15.0,58,0.00,,---,0.00,VWS V14.00,2013-10-24 15:20:00,
2013-10-24 11:25:00,47.4,33.0,30.04,SW,221,7.0,16.0,57,0.00,,---,0.00,VWS V14.00,2013-10-24 15:25:00,
2013-10-24 11:30:00,47.1,33.1,30.04,SW,231,8.0,16.0,58,0.00,,---,0.00,VWS V14.00,2013-10-24 15:30:00,
2013-10-24 11:35:00,47.0,33.4,30.04,West,259,7.0,16.0,59,0.00,,---,0.00,VWS V14.00,2013-10-24 15:35:00,
2013-10-24 11:40:00,47.0,33.0,30.04,SW,233,3.0,12.0,58,0.00,,---,0.00,VWS V14.00,2013-10-24 15:40:00,
2013-10-24 11:45:00,46.8,33.2,30.04,WSW,248,2.0,14.0,59,0.00,,---,0.00,VWS V14.00,2013-10-24 15:45:00,
2013-10-24 11:50:00,46.8,33.7,30.04,WSW,245,10.0,14.0,60,0.00,,---,0.00,VWS V14.00,2013-10-24 15:50:00,
2013-10-24 11:55:00,46.9,33.8,30.04,SW,217,3.0,14.0,60,0.00,,---,0.00,VWS V14.00,2013-10-24 15:55:00,
2013-10-24 12:00:00,46.8,33.7,30.04,WSW,246,4.0,14.0,60,0.00,,---,0.00,VWS V14.00,2013-10-24 16:00:00,
2013-10-24 12:05:00,46.7,34.0,30.04,West,270,3.0,14.0,61,0.00,,---,0.00,VWS V14.00,2013-10-24 16:05:00,
2013-10-24 12:10:00,47.3,34.5,30.04,SW,229,9.0,11.0,61,0.00,,---,0.00,VWS V14.00,2013-10-24 16:10:00,
2013-10-24 12:15:00,47.8,34.6,30.03,West,265,5.0,13.0,60,0.00,,---,0.00,VWS V14.00,2013-10-24 16:15:00,
2013-10-24 12:20:00,49.2,35.9,30.03,West,265,5.0,16.0,60,0.00,,---,0.00,VWS V14.00,2013-10-24 16:20:00,
2013-10-24 12:25:00,49.8,34.8,30.03,West,266,4.0,16.0,56,0.00,,---,0.00,VWS V14.00,2013-10-24 16:25:00,
2013-10-24 12:30:00,49.1,33.2,30.03,West,263,4.0,16.0,54,0.00,,---,0.00,VWS V14.00,2013-10-24 16:30:00,
2013-10-24 12:35:00,48.3,32.4,30.03,West,277,7.0,16.0,54,0.00,,---,0.00,VWS V14.00,2013-10-24 16:35:00,
2013-10-24 12:40:00,47.8,32.9,30.03,West,272,7.0,12.0,56,0.00,,---,0.00,VWS V14.00,2013-10-24 16:40:00,
2013-10-24 12:45:00,47.5,32.6,30.03,WSW,239,3.0,12.0,56,0.00,,---,0.00,VWS V14.00,2013-10-24 16:45:00,
2013-10-24 12:50:00,47.3,31.5,30.03,WSW,254,17.0,18.0,54,0.00,,---,0.00,VWS V14.00,2013-10-24 16:50:00,
2013-10-24 12:55:00,47.6,32.7,30.03,West,276,7.0,18.0,56,0.00,,---,0.00,VWS V14.00,2013-10-24 16:55:00,
2013-10-24 13:00:00,49.5,34.5,30.02,WSW,245,5.0,18.0,56,0.00,,---,0.00,VWS V14.00,2013-10-24 17:00:00,
2013-10-24 13:05:00,50.4,33.0,30.02,WSW,237,13.0,18.0,51,0.00,,---,0.00,VWS V14.00,2013-10-24 17:05:00,
2013-10-24 13:10:00,50.2,31.8,30.02,West,266,13.0,26.0,49,0.00,,---,0.00,VWS V14.00,2013-10-24 17:10:00,
2013-10-24 13:15:00,50.1,32.2,30.02,WSW,252,9.0,26.0,50,0.00,,---,0.00,VWS V14.00,2013-10-24 17:15:00,
2013-10-24 13:20:00,49.9,31.0,30.02,West,264,13.0,26.0,48,0.00,,---,0.00,VWS V14.00,2013-10-24 17:20:00,
2013-10-24 13:25:00,49.7,31.3,30.02,West,259,11.0,26.0,49,0.00,,---,0.00,VWS V14.00,2013-10-24 17:25:00,
2013-10-24 13:30:00,50.3,32.9,30.02,West,262,7.0,26.0,51,0.00,,---,0.00,VWS V14.00,2013-10-24 17:30:00,
2013-10-24 13:35:00,50.7,32.8,30.02,West,272,10.0,26.0,50,0.00,,---,0.00,VWS V14.00,2013-10-24 17:35:00,
2013-10-24 13:40:00,50.4,30.4,30.02,WSW,256,4.0,17.0,46,0.00,,---,0.00,VWS V14.00,2013-10-24 17:40:00,
2013-10-24 13:45:00,49.9,31.0,30.02,NW,324,2.0,17.0,48,0.00,,---,0.00,VWS V14.00,2013-10-24 17:45:00,
2013-10-24 13:50:00,49.4,31.1,30.02,WNW,299,4.0,17.0,49,0.00,,---,0.00,VWS V14.00,2013-10-24 17:50:00,
2013-10-24 13:55:00,49.0,31.2,30.02,WNW,286,1.0,17.0,50,0.00,,---,0.00,VWS V14.00,2013-10-24 17:55:00,
2013-10-24 14:00:00,48.8,32.4,30.02,West,276,4.0,17.0,53,0.00,,---,0.00,VWS V14.00,2013-10-24 18:00:00,
2013-10-24 14:05:00,48.7,31.9,30.02,WSW,253,0.0,17.0,52,0.00,,---,0.00,VWS V14.00,2013-10-24 18:05:00,
2013-10-24 14:10:00,48.5,30.7,30.02,SW,219,4.0,12.0,50,0.00,,---,0.00,VWS V14.00,2013-10-24 18:10:00,
2013-10-24 14:15:00,48.4,30.6,30.02,West,273,10.0,12.0,50,0.00,,---,0.00,VWS V14.00,2013-10-24 18:15:00,
2013-10-24 14:20:00,48.5,31.7,30.02,West,265,10.0,17.0,52,0.00,,---,0.00,VWS V14.00,2013-10-24 18:20:00,
2013-10-24 14:25:00,49.7,32.3,30.01,West,273,5.0,17.0,51,0.00,,---,0.00,VWS V14.00,2013-10-24 18:25:00,
2013-10-24 14:30:00,50.2,31.3,30.01,West,264,5.0,18.0,48,0.00,,---,0.00,VWS V14.00,2013-10-24 18:30:00,
2013-10-24 14:35:00,50.4,31.0,30.01,SW,221,11.0,18.0,47,0.00,,---,0.00,VWS V14.00,2013-10-24 18:35:00,
2013-10-24 14:40:00,50.1,31.7,30.02,SW,222,4.0,19.0,49,0.00,,---,0.00,VWS V14.00,2013-10-24 18:40:00,
2013-10-24 14:45:00,50.7,32.2,30.01,West,259,11.0,19.0,49,0.00,,---,0.00,VWS V14.00,2013-10-24 18:45:00,
2013-10-24 14:50:00,51.3,32.3,30.01,West,281,14.0,19.0,48,0.00,,---,0.00,VWS V14.00,2013-10-24 18:50:00,
2013-10-24 14:55:00,51.2,32.7,30.02,NW,304,2.0,19.0,49,0.00,,---,0.00,VWS V14.00,2013-10-24 18:55:00,
2013-10-24 15:00:00,50.7,31.7,30.02,West,275,3.0,19.0,48,0.00,,---,0.00,VWS V14.00,2013-10-24 19:00:00,
2013-10-24 15:05:00,49.9,31.0,30.02,West,273,2.0,19.0,48,0.00,,---,0.00,VWS V14.00,2013-10-24 19:05:00,
2013-10-24 15:15:00,48.8,30.5,30.02,WSW,252,5.0,15.0,49,0.00,,---,0.00,VWS V14.00,2013-10-24 19:15:00,
2013-10-24 15:20:00,48.6,30.3,30.02,West,270,11.0,16.0,49,0.00,,---,0.00,VWS V14.00,2013-10-24 19:20:00,
2013-10-24 15:25:00,48.2,30.0,30.03,WSW,254,10.0,18.0,49,0.00,,---,0.00,VWS V14.00,2013-10-24 19:25:00,
2013-10-24 15:30:00,47.9,29.7,30.03,West,269,5.0,18.0,49,0.00,,---,0.00,VWS V14.00,2013-10-24 19:30:00,
2013-10-24 15:35:00,47.8,30.1,30.03,West,265,0.0,18.0,50,0.00,,---,0.00,VWS V14.00,2013-10-24 19:35:00,
2013-10-24 15:40:00,47.9,30.7,30.03,SW,225,7.0,12.0,51,0.00,,---,0.00,VWS V14.00,2013-10-24 19:40:00,
2013-10-24 15:45:00,47.9,29.7,30.03,NW,317,4.0,15.0,49,0.00,,---,0.00,VWS V14.00,2013-10-24 19:45:00,
2013-10-24 15:50:00,47.9,30.2,30.03,WNW,293,4.0,15.0,50,0.00,,---,0.00,VWS V14.00,2013-10-24 19:50:00,
2013-10-24 15:55:00,47.8,30.1,30.03,West,259,11.0,17.0,50,0.00,,---,0.00,VWS V14.00,2013-10-24 19:55:00,
2013-10-24 16:00:00,47.7,30.0,30.03,West,261,9.0,17.0,50,0.00,,---,0.00,VWS V14.00,2013-10-24 20:00:00,
2013-10-24 16:05:00,47.5,30.3,30.03,WSW,237,6.0,17.0,51,0.00,,---,0.00,VWS V14.00,2013-10-24 20:05:00,
2013-10-24 16:11:00,47.4,30.2,30.04,West,263,6.0,13.0,51,0.00,,---,0.00,VWS V14.00,2013-10-24 20:11:00,
2013-10-24 16:16:00,47.4,30.2,30.04,West,264,5.0,13.0,51,0.00,,---,0.00,VWS V14.00,2013-10-24 20:16:00,
2013-10-24 16:21:00,47.4,30.7,30.04,West,275,7.0,15.0,52,0.00,,---,0.00,VWS V14.00,2013-10-24 20:21:00,
2013-10-24 16:26:00,47.5,30.8,30.04,West,273,9.0,15.0,52,0.00,,---,0.00,VWS V14.00,2013-10-24 20:26:00,
2013-10-24 16:30:00,47.4,30.7,30.04,WNW,292,0.0,15.0,52,0.00,,---,0.00,VWS V14.00,2013-10-24 20:30:00,
2013-10-24 16:31:00,47.5,30.3,30.04,West,277,1.0,15.0,51,0.00,,---,0.00,VWS V14.00,2013-10-24 20:31:00,
2013-10-24 16:36:00,47.4,30.7,30.04,WNW,292,2.0,15.0,52,0.00,,---,0.00,VWS V14.00,2013-10-24 20:36:00,
2013-10-24 16:41:00,47.3,31.5,30.04,WNW,287,5.0,7.0,54,0.00,,---,0.00,VWS V14.00,2013-10-24 20:41:00,
2013-10-24 16:46:00,47.3,32.4,30.04,NW,325,3.0,7.0,56,0.00,,---,0.00,VWS V14.00,2013-10-24 20:46:00,
2013-10-24 16:51:00,47.6,32.7,30.04,West,263,3.0,7.0,56,0.00,,---,0.00,VWS V14.00,2013-10-24 20:51:00,
2013-10-24 16:56:00,48.0,32.6,30.03,WNW,283,2.0,7.0,55,0.00,,---,0.00,VWS V14.00,2013-10-24 20:56:00,
2013-10-24 17:00:00,48.2,31.4,30.04,West,265,5.0,10.0,52,0.00,,---,0.00,VWS V14.00,2013-10-24 21:00:00,
2013-10-24 17:01:00,48.4,32.5,30.03,West,270,0.0,7.0,54,0.00,,---,0.00,VWS V14.00,2013-10-24 21:01:00,
2013-10-24 17:06:00,48.2,30.9,30.04,WSW,257,3.0,10.0,51,0.00,,---,0.00,VWS V14.00,2013-10-24 21:06:00,
2013-10-24 17:11:00,47.9,30.7,30.04,West,261,1.0,11.0,51,0.00,,---,0.00,VWS V14.00,2013-10-24 21:11:00,
2013-10-24 17:16:00,47.6,30.4,30.04,West,273,0.0,11.0,51,0.00,,---,0.00,VWS V14.00,2013-10-24 21:16:00,
2013-10-24 17:21:00,47.3,31.0,30.04,West,279,0.0,11.0,53,0.00,,---,0.00,VWS V14.00,2013-10-24 21:21:00,
2013-10-24 17:26:00,47.1,31.3,30.04,WNW,294,0.0,11.0,54,0.00,,---,0.00,VWS V14.00,2013-10-24 21:26:00,
2013-10-24 17:30:00,46.8,31.5,30.04,West,274,0.0,11.0,55,0.00,,---,0.00,VWS V14.00,2013-10-24 21:30:00,
2013-10-24 17:31:00,46.9,31.1,30.04,West,275,0.0,11.0,54,0.00,,---,0.00,VWS V14.00,2013-10-24 21:31:00,
2013-10-24 17:36:00,46.8,31.5,30.04,West,273,0.0,11.0,55,0.00,,---,0.00,VWS V14.00,2013-10-24 21:36:00,
2013-10-24 17:41:00,46.6,31.8,30.05,West,273,0.0,0.0,56,0.00,,---,0.00,VWS V14.00,2013-10-24 21:41:00,
2013-10-24 17:46:00,46.4,32.0,30.05,WNW,287,0.0,3.0,57,0.00,,---,0.00,VWS V14.00,2013-10-24 21:46:00,
2013-10-24 17:51:00,46.1,31.7,30.05,West,279,0.0,5.0,57,0.00,,---,0.00,VWS V14.00,2013-10-24 21:51:00,
2013-10-24 17:56:00,45.9,31.5,30.06,West,279,0.0,5.0,57,0.00,,---,0.00,VWS V14.00,2013-10-24 21:56:00,
2013-10-24 18:00:00,45.6,32.1,30.06,West,279,0.0,5.0,59,0.00,,---,0.00,VWS V14.00,2013-10-24 22:00:00,
2013-10-24 18:01:00,45.7,31.8,30.06,West,279,0.0,5.0,58,0.00,,---,0.00,VWS V14.00,2013-10-24 22:01:00,
2013-10-24 18:06:00,45.6,32.1,30.06,West,279,0.0,5.0,59,0.00,,---,0.00,VWS V14.00,2013-10-24 22:06:00,
2013-10-24 18:11:00,45.5,32.0,30.06,West,279,0.0,0.0,59,0.00,,---,0.00,VWS V14.00,2013-10-24 22:11:00,
2013-10-24 18:16:00,45.4,31.5,30.07,West,279,0.0,0.0,58,0.00,,---,0.00,VWS V14.00,2013-10-24 22:16:00,
2013-10-24 18:21:00,45.2,31.7,30.07,West,279,0.0,0.0,59,0.00,,---,0.00,VWS V14.00,2013-10-24 22:21:00,
2013-10-24 18:26:00,45.1,31.6,30.07,West,281,3.0,5.0,59,0.00,,---,0.00,VWS V14.00,2013-10-24 22:26:00,
2013-10-24 18:30:00,44.8,31.8,30.07,West,280,0.0,5.0,60,0.00,,---,0.00,VWS V14.00,2013-10-24 22:30:00,
2013-10-24 18:31:00,45.0,31.5,30.07,West,280,0.0,5.0,59,0.00,,---,0.00,VWS V14.00,2013-10-24 22:31:00,
2013-10-24 18:36:00,76.8,73.0,30.27,South,180,3.5,3.5,88,0.00,CLR,,0.00,WeatherDisplay:10.37,2013-10-24 22:36:00,
2013-10-24 18:41:00,44.7,31.7,30.07,West,265,2.0,7.0,60,0.00,,---,0.00,VWS V14.00,2013-10-24 22:41:00,
2013-10-24 18:46:00,44.6,31.6,30.08,West,265,0.0,7.0,60,0.00,,---,0.00,VWS V14.00,2013-10-24 22:46:00,
2013-10-24 18:51:00,44.6,32.0,30.08,West,265,2.0,7.0,61,0.00,,---,0.00,VWS V14.00,2013-10-24 22:51:00,
2013-10-24 18:56:00,44.6,32.0,30.08,West,265,0.0,7.0,61,0.00,,---,0.00,VWS V14.00,2013-10-24 22:56:00,
2013-10-24 19:00:00,44.4,31.8,30.08,West,265,0.0,7.0,61,0.00,,---,0.00,VWS V14.00,2013-10-24 23:00:00,
2013-10-24 19:01:00,44.5,31.9,30.08,West,265,0.0,7.0,61,0.00,,---,0.00,VWS V14.00,2013-10-24 23:01:00,
2013-10-24 19:06:00,44.4,31.8,30.08,West,265,0.0,7.0,61,0.00,,---,0.00,VWS V14.00,2013-10-24 23:06:00,
2013-10-24 19:11:00,44.2,31.6,30.08,West,265,0.0,0.0,61,0.00,,---,0.00,VWS V14.00,2013-10-24 23:11:00,
2013-10-24 19:16:00,44.1,31.9,30.09,West,265,0.0,0.0,62,0.00,,---,0.00,VWS V14.00,2013-10-24 23:16:00,
2013-10-24 19:21:00,44.0,32.2,30.09,West,265,0.0,0.0,63,0.00,,---,0.00,VWS V14.00,2013-10-24 23:21:00,
2013-10-24 19:26:00,43.8,32.4,30.09,West,265,0.0,0.0,64,0.00,,---,0.00,VWS V14.00,2013-10-24 23:26:00,
2013-10-24 19:30:00,43.6,32.6,30.10,West,265,0.0,0.0,65,0.00,,---,0.00,VWS V14.00,2013-10-24 23:30:00,
2013-10-24 19:31:00,43.7,32.3,30.09,West,265,0.0,0.0,64,0.00,,---,0.00,VWS V14.00,2013-10-24 23:31:00,
2013-10-24 19:36:00,43.6,32.6,30.10,West,265,0.0,0.0,65,0.00,,---,0.00,VWS V14.00,2013-10-24 23:36:00,
2013-10-24 19:41:00,43.4,32.4,30.10,West,265,0.0,2.0,65,0.00,,---,0.00,VWS V14.00,2013-10-24 23:41:00,
2013-10-24 19:46:00,43.3,32.7,30.10,West,265,0.0,2.0,66,0.00,,---,0.00,VWS V14.00,2013-10-24 23:46:00,
2013-10-24 19:51:00,43.2,32.6,30.10,West,265,0.0,2.0,66,0.00,,---,0.00,VWS V14.00,2013-10-24 23:51:00,
2013-10-24 19:56:00,43.2,33.0,30.10,West,265,0.0,2.0,67,0.00,,---,0.00,VWS V14.00,2013-10-24 23:56:00,
2013-10-24 20:00:00,43.3,33.1,30.10,West,265,1.0,4.0,67,0.00,,---,0.00,VWS V14.00,2013-10-25 00:00:00,
2013-10-24 20:01:00,43.2,33.0,30.10,West,265,1.0,4.0,67,0.00,,---,0.00,VWS V14.00,2013-10-25 00:01:00,
2013-10-24 20:06:00,43.3,33.1,30.10,West,265,3.0,3.0,67,0.00,,---,0.00,VWS V14.00,2013-10-25 00:06:00,
2013-10-24 20:11:00,43.3,33.1,30.10,West,264,0.0,5.0,67,0.00,,---,0.00,VWS V14.00,2013-10-25 00:11:00,
2013-10-24 20:16:00,43.2,33.4,30.10,WSW,255,0.0,5.0,68,0.00,,---,0.00,VWS V14.00,2013-10-25 00:16:00,
2013-10-24 20:21:00,43.1,33.3,30.10,WSW,250,0.0,5.0,68,0.00,,---,0.00,VWS V14.00,2013-10-25 00:21:00,
2013-10-24 20:26:00,42.9,33.1,30.10,WSW,252,0.0,5.0,68,0.00,,---,0.00,VWS V14.00,2013-10-25 00:26:00,
2013-10-24 20:30:00,42.7,32.9,30.10,WSW,250,0.0,5.0,68,0.00,,---,0.00,VWS V14.00,2013-10-25 00:30:00,
2013-10-24 20:31:00,42.7,32.9,30.10,WSW,251,0.0,5.0,68,0.00,,---,0.00,VWS V14.00,2013-10-25 00:31:00,
2013-10-24 20:36:00,42.7,32.9,30.10,WSW,250,0.0,0.0,68,0.00,,---,0.00,VWS V14.00,2013-10-25 00:36:00,
2013-10-24 20:41:00,42.6,33.2,30.11,WSW,251,0.0,0.0,69,0.00,,---,0.00,VWS V14.00,2013-10-25 00:41:00,
2013-10-24 20:46:00,42.4,33.0,30.10,WSW,251,0.0,0.0,69,0.00,,---,0.00,VWS V14.00,2013-10-25 00:46:00,
2013-10-24 20:51:00,42.3,32.9,30.11,WSW,251,0.0,0.0,69,0.00,,---,0.00,VWS V14.00,2013-10-25 00:51:00,
2013-10-24 20:56:00,42.1,32.7,30.11,West,271,0.0,5.0,69,0.00,,---,0.00,VWS V14.00,2013-10-25 00:56:00,
2013-10-24 21:00:00,42.0,32.6,30.11,WSW,257,0.0,11.0,69,0.00,,---,0.00,VWS V14.00,2013-10-25 01:00:00,
2013-10-24 21:01:00,42.0,32.9,30.11,WSW,244,0.0,7.0,70,0.00,,---,0.00,VWS V14.00,2013-10-25 01:01:00,
2013-10-24 21:06:00,42.0,32.6,30.11,West,259,3.0,3.0,69,0.00,,---,0.00,VWS V14.00,2013-10-25 01:06:00,
2013-10-24 21:11:00,42.1,32.7,30.11,West,260,5.0,9.0,69,0.00,,---,0.00,VWS V14.00,2013-10-25 01:11:00,
2013-10-24 21:16:00,42.2,32.8,30.12,West,269,0.0,9.0,69,0.00,,---,0.00,VWS V14.00,2013-10-25 01:16:00,
2013-10-24 21:21:00,42.2,32.4,30.12,West,264,3.0,11.0,68,0.00,,---,0.00,VWS V14.00,2013-10-25 01:21:00,
2013-10-24 21:26:00,42.3,32.5,30.12,WSW,256,3.0,11.0,68,0.00,,---,0.00,VWS V14.00,2013-10-25 01:26:00,
2013-10-24 21:30:00,42.1,32.3,30.12,West,265,5.0,13.0,68,0.00,,---,0.00,VWS V14.00,2013-10-25 01:30:00,
2013-10-24 21:31:00,42.2,32.4,30.12,WSW,255,6.0,11.0,68,0.00,,---,0.00,VWS V14.00,2013-10-25 01:31:00,
2013-10-24 21:36:00,42.1,32.3,30.12,West,264,11.0,11.0,68,0.00,,---,0.00,VWS V14.00,2013-10-25 01:36:00,
2013-10-24 21:41:00,42.1,32.3,30.12,WSW,251,2.0,13.0,68,0.00,,---,0.00,VWS V14.00,2013-10-25 01:41:00,
2013-10-24 21:46:00,42.0,32.2,30.12,West,261,5.0,13.0,68,0.00,,---,0.00,VWS V14.00,2013-10-25 01:46:00,
2013-10-24 21:51:00,42.0,31.9,30.13,West,276,0.0,13.0,67,0.00,,---,0.00,VWS V14.00,2013-10-25 01:51:00,
2013-10-24 21:56:00,41.9,31.8,30.13,West,276,0.0,13.0,67,0.00,,---,0.00,VWS V14.00,2013-10-25 01:56:00,
2013-10-24 22:00:00,41.6,31.5,30.13,WSW,254,5.0,13.0,67,0.00,,---,0.00,VWS V14.00,2013-10-25 02:00:00,
2013-10-24 22:01:00,41.8,31.7,30.13,West,276,0.0,13.0,67,0.00,,---,0.00,VWS V14.00,2013-10-25 02:01:00,
2013-10-24 22:06:00,41.6,31.5,30.13,WSW,256,3.0,6.0,67,0.00,,---,0.00,VWS V14.00,2013-10-25 02:06:00,
2013-10-24 22:11:00,41.4,31.3,30.12,West,261,3.0,9.0,67,0.00,,---,0.00,VWS V14.00,2013-10-25 02:11:00,
2013-10-24 22:16:00,41.2,31.5,30.12,WSW,256,0.0,10.0,68,0.00,,---,0.00,VWS V14.00,2013-10-25 02:16:00,
2013-10-24 22:21:00,41.2,31.1,30.12,West,263,7.0,14.0,67,0.00,,---,0.00,VWS V14.00,2013-10-25 02:21:00,
2013-10-24 22:26:00,41.1,31.0,30.13,West,270,0.0,14.0,67,0.00,,---,0.00,VWS V14.00,2013-10-25 02:26:00,
2013-10-24 22:30:00,41.1,30.6,30.14,West,275,0.0,14.0,66,0.00,,---,0.00,VWS V14.00,2013-10-25 02:30:00,
2013-10-24 22:31:00,41.1,30.6,30.13,West,275,0.0,14.0,66,0.00,,---,0.00,VWS V14.00,2013-10-25 02:31:00,
2013-10-24 22:36:00,41.0,30.5,30.14,West,275,0.0,0.0,66,0.00,,---,0.00,VWS V14.00,2013-10-25 02:36:00,
2013-10-24 22:41:00,41.0,30.5,30.14,West,275,0.0,0.0,66,0.00,,---,0.00,VWS V14.00,2013-10-25 02:41:00,
2013-10-24 22:46:00,40.8,30.7,30.14,West,275,0.0,0.0,67,0.00,,---,0.00,VWS V14.00,2013-10-25 02:46:00,
2013-10-24 22:51:00,40.6,30.5,30.14,West,275,0.0,0.0,67,0.00,,---,0.00,VWS V14.00,2013-10-25 02:51:00,
2013-10-24 22:56:00,40.3,30.2,30.15,SW,221,0.0,4.0,67,0.00,,---,0.00,VWS V14.00,2013-10-25 02:56:00,
2013-10-24 23:00:00,40.0,30.7,30.15,SW,214,0.0,4.0,69,0.00,,---,0.00,VWS V14.00,2013-10-25 03:00:00,
2013-10-24 23:01:00,40.1,30.4,30.15,SW,215,0.0,4.0,68,0.00,,---,0.00,VWS V14.00,2013-10-25 03:01:00,
2013-10-24 23:06:00,39.9,30.6,30.15,SW,214,0.0,0.0,69,0.00,,---,0.00,VWS V14.00,2013-10-25 03:06:00,
2013-10-24 23:11:00,39.7,30.4,30.15,SW,215,0.0,0.0,69,0.00,,---,0.00,VWS V14.00,2013-10-25 03:11:00,
2013-10-24 23:17:00,39.4,30.1,30.14,SSW,210,0.0,6.0,69,0.00,,---,0.00,VWS V14.00,2013-10-25 03:17:00,
2013-10-24 23:22:00,39.3,30.4,30.14,SSW,210,0.0,6.0,70,0.00,,---,0.00,VWS V14.00,2013-10-25 03:22:00,
2013-10-24 23:27:00,39.1,30.2,30.15,SSW,210,0.0,6.0,70,0.00,,---,0.00,VWS V14.00,2013-10-25 03:27:00,
2013-10-24 23:30:00,39.0,30.1,30.15,SSW,210,0.0,6.0,70,0.00,,---,0.00,VWS V14.00,2013-10-25 03:30:00,
2013-10-24 23:32:00,39.0,30.1,30.15,SSW,210,0.0,6.0,70,0.00,,---,0.00,VWS V14.00,2013-10-25 03:32:00,
2013-10-24 23:37:00,38.9,30.0,30.15,SSW,210,0.0,0.0,70,0.00,,---,0.00,VWS V14.00,2013-10-25 03:37:00,
2013-10-24 23:42:00,38.8,29.9,30.15,SSW,210,0.0,0.0,70,0.00,,---,0.00,VWS V14.00,2013-10-25 03:42:00,
2013-10-24 23:47:00,38.7,30.1,30.15,SSW,210,0.0,0.0,71,0.00,,---,0.00,VWS V14.00,2013-10-25 03:47:00,
2013-10-24 23:52:00,38.7,30.1,30.15,SSW,210,0.0,0.0,71,0.00,,---,0.00,VWS V14.00,2013-10-25 03:52:00,
2013-10-24 23:57:00,38.6,30.0,30.15,SSW,211,0.0,2.0,71,0.00,,---,0.00,VWS V14.00,2013-10-25 03:57:00,